Tacoma, WA
on Friday, November 30, 2012

Friday
Previous Day Next Day
Daily Summary
 ActualAverage (KSEA)Record (KSEA)
Temperature
Mean Temperature °F 42°F  
Max Temperature 57°F 48°F 59°F (2012)
Min Temperature 42°F 37°F 21°F (1985)
Degree Days
Heating Degree Days 16 23  
Month to date heating degree days 587  
Since 1 July heating degree days 1183  
Cooling Degree Days 0 0  
Month to date cooling degree days 0  
Year to date cooling degree days 189  
Moisture
Dew Point 47°F   
Average Humidity 95    
Maximum Humidity 100    
Minimum Humidity 61    
Precipitation
Precipitation 1.04 in 0.22 in 1.50 in (1964)
Month to date precipitation 6.57  
Year to date precipitation 32.14  
Snow
Snow 0.00 in in 1.00 in (1950)
Month to date snowfall  
Since 1 July snowfall  
Snow Depth in   
Wind
Wind Speed 5 mph   
Max Wind Speed 20 mph   
Max Gust Speed 31 mph   
Visibility 8 miles   
Events Rain   

Key: T is trace of precipitation, MM is missing value
Source: NWS Daily Summary
Time(PST)TemperatureDew PointHumidity Pressure Visibility Wind DirectionWind SpeedGust SpeedPrecipitationEvents Conditions
12:08 AM 46.4°F 46.4°F 100% 29.45 in 6.0 miles Calm Calm - N/A Rain Light Rain
12:33 AM 46.4°F 44.6°F 93% 29.44 in 5.0 miles ENE 2.3 mph - N/A Rain Rain
12:38 AM 46.4°F 44.6°F 93% 29.44 in 6.0 miles ENE 2.3 mph - N/A Rain Light Rain
12:53 AM 46.4°F 46.4°F 100% 29.44 in 5.0 miles Calm Calm - N/A Rain Rain
12:58 AM 45.9°F 45.7°F 99% 29.45 in 4.0 miles ESE 1.2 mph - 0.11 in Rain Light Rain
1:03 AM 46.4°F 44.6°F 93% 29.44 in 5.0 miles East 2.3 mph - N/A Rain Light Rain
1:17 AM 46.4°F 44.6°F 93% 29.43 in 10.0 miles East 3.5 mph - N/A   Overcast
1:58 AM 45.7°F 45.3°F 99% 29.44 in 10.0 miles Calm Calm - 0.02 in   Overcast
2:46 AM 44.6°F 44.6°F 100% 29.41 in 10.0 miles South 2.3 mph - N/A Rain Light Rain
2:58 AM 45.1°F 45.0°F 99% 29.42 in 10.0 miles South 2.3 mph - 0.00 in Rain Light Rain
3:18 AM 44.6°F 44.6°F 100% 29.41 in 9.0 miles WSW 1.2 mph - N/A Rain Light Rain
3:23 AM 44.6°F 44.6°F 100% 29.40 in 9.0 miles Calm Calm - N/A Rain Light Rain
3:28 AM 44.6°F 44.6°F 100% 29.40 in 10.0 miles ENE 2.3 mph - N/A   Overcast
3:30 AM 44.6°F 44.6°F 100% 29.40 in 10.0 miles East 2.3 mph - N/A Rain Light Rain
3:40 AM 44.6°F 44.6°F 100% 29.40 in 10.0 miles East 2.3 mph - N/A   Overcast
3:58 AM 45.1°F 44.8°F 99% 29.41 in 10.0 miles ESE 1.2 mph - 0.02 in   Overcast
4:08 AM 44.6°F 44.6°F 100% 29.39 in 9.0 miles East 2.3 mph - N/A   Mostly Cloudy
4:18 AM 44.6°F 44.6°F 100% 29.39 in 3.0 miles ESE 3.5 mph - N/A   Scattered Clouds
4:23 AM 44.6°F 44.6°F 100% 29.39 in 1.8 miles ESE 4.6 mph - N/A   Partly Cloudy
4:28 AM 44.6°F 42.8°F 93% 29.39 in 1.2 miles SE 3.5 mph - N/A   Partly Cloudy
4:38 AM 42.8°F 42.8°F 100% 29.39 in 1.8 miles ESE 2.3 mph - N/A   Partly Cloudy
4:43 AM 42.8°F 42.8°F 100% 29.39 in 2.0 miles SE 2.3 mph - N/A   Scattered Clouds
4:48 AM 42.8°F 42.8°F 100% 29.39 in 1.8 miles SE 2.3 mph - N/A   Mostly Cloudy
4:53 AM 42.8°F 42.8°F 100% 29.39 in 1.2 miles SE 2.3 mph - N/A   Mostly Cloudy
4:58 AM 42.4°F 42.1°F 99% 29.41 in 1.2 miles East 2.3 mph - N/A   Overcast
5:03 AM 42.8°F 41.0°F 93% 29.39 in 1.8 miles East 3.5 mph - N/A   Overcast
5:08 AM 42.8°F 42.8°F 100% 29.38 in 4.0 miles East 4.6 mph - N/A   Overcast
5:13 AM 42.8°F 42.8°F 100% 29.38 in 8.0 miles East 5.8 mph - N/A   Overcast
5:18 AM 44.6°F 44.6°F 100% 29.37 in 10.0 miles ENE 4.6 mph - N/A   Overcast
5:58 AM 44.6°F 44.6°F 100% 29.39 in 10.0 miles Calm Calm - N/A   Overcast
5:59 AM 44.6°F 44.6°F 100% 29.37 in 10.0 miles Calm Calm - N/A Rain Light Rain
6:09 AM 44.6°F 44.6°F 100% 29.37 in 10.0 miles South 2.3 mph - N/A   Overcast
6:49 AM 46.4°F 46.4°F 100% 29.38 in 10.0 miles SE 8.1 mph - N/A Rain Light Rain
6:58 AM 48.6°F 47.5°F 96% 29.40 in 10.0 miles SE 8.1 mph - 0.00 in Rain Light Rain
7:18 AM 50.0°F 48.2°F 94% 29.40 in 10.0 miles South 6.9 mph - N/A   Overcast
7:58 AM 49.1°F 47.8°F 95% 29.43 in 10.0 miles South 9.2 mph - 0.00 in   Mostly Cloudy
8:58 AM 52.3°F 47.1°F 82% 29.43 in 10.0 miles South 13.8 mph - N/A   Mostly Cloudy
9:58 AM 54.5°F 46.0°F 73% 29.44 in 10.0 miles South 10.4 mph - N/A   Overcast
10:09 AM 55.4°F 46.4°F 72% 29.43 in 10.0 miles South 13.8 mph 25.3 mph N/A Rain Light Rain
10:19 AM 55.4°F 46.4°F 72% 29.43 in 10.0 miles South 15.0 mph 21.9 mph N/A   Mostly Cloudy
10:58 AM 56.5°F 45.9°F 68% 29.44 in 10.0 miles South 17.3 mph 24.2 mph 0.00 in   Mostly Cloudy
11:58 AM 57.2°F 45.1°F 64% 29.43 in 10.0 miles South 13.8 mph 26.5 mph N/A   Mostly Cloudy
12:58 PM 57.9°F 44.6°F 61% 29.43 in 10.0 miles South 18.4 mph 31.1 mph N/A   Mostly Cloudy
1:22 PM 57.2°F 46.4°F 67% 29.43 in 10.0 miles South 15.0 mph 27.6 mph N/A Rain Light Rain
1:45 PM 55.4°F 46.4°F 72% 29.43 in 10.0 miles South 13.8 mph 26.5 mph N/A   Mostly Cloudy
1:58 PM 55.8°F 46.2°F 70% 29.44 in 10.0 miles South 19.6 mph 26.5 mph 0.01 in   Mostly Cloudy
2:20 PM 55.4°F 46.4°F 72% 29.43 in 10.0 miles South 15.0 mph 25.3 mph N/A Rain Light Rain
2:45 PM 53.6°F 48.2°F 82% 29.43 in 10.0 miles South 11.5 mph - N/A   Overcast
2:47 PM 53.6°F 48.2°F 82% 29.43 in 10.0 miles South 11.5 mph - N/A Rain Light Rain
2:58 PM 52.9°F 49.1°F 87% 29.44 in 10.0 miles South 8.1 mph - 0.02 in Rain Light Rain
2:59 PM 51.8°F 50.0°F 94% 29.43 in 10.0 miles South 8.1 mph - N/A   Overcast
3:09 PM 51.8°F 50.0°F 94% 29.44 in 10.0 miles South 6.9 mph - N/A Rain Light Rain
3:58 PM 51.3°F 50.2°F 96% 29.46 in 10.0 miles SE 2.3 mph - 0.03 in Rain Light Rain
4:10 PM 50.0°F 50.0°F 100% 29.44 in 10.0 miles East 2.3 mph - N/A   Overcast
4:11 PM 50.0°F 50.0°F 100% 29.44 in 10.0 miles East 2.3 mph - N/A Rain Light Rain
4:13 PM 50.0°F 50.0°F 100% 29.44 in 10.0 miles East 2.3 mph - N/A   Overcast
4:14 PM 50.0°F 50.0°F 100% 29.44 in 10.0 miles East 1.2 mph - N/A Rain Light Rain
4:29 PM 51.8°F 50.0°F 94% 29.44 in 7.0 miles West 2.3 mph - N/A Rain Light Rain
4:49 PM 51.8°F 50.0°F 94% 29.45 in 5.0 miles SSW 9.2 mph 17.3 mph N/A Rain Rain
4:58 PM 50.7°F 50.2°F 98% 29.47 in 6.0 miles SW 8.1 mph - 0.07 in Rain Rain
5:13 PM 50.0°F 50.0°F 100% 29.46 in 9.0 miles SW 6.9 mph - N/A Rain Light Rain
5:18 PM 50.0°F 50.0°F 100% 29.45 in 9.0 miles Variable 2.3 mph - N/A Rain Light Rain
5:23 PM 50.0°F 50.0°F 100% 29.45 in 9.0 miles SSW 4.6 mph - N/A Rain Light Rain
5:33 PM 50.0°F 50.0°F 100% 29.45 in 9.0 miles WSW 5.8 mph - N/A Rain Light Rain
5:38 PM 50.0°F 50.0°F 100% 29.46 in 7.0 miles SW 4.6 mph - N/A Rain Light Rain
5:43 PM 50.0°F 50.0°F 100% 29.46 in 5.0 miles WSW 10.4 mph - N/A Rain Rain
5:53 PM 50.0°F 50.0°F 100% 29.47 in 3.0 miles SW 12.7 mph 19.6 mph N/A Rain Heavy Rain
5:58 PM 49.5°F 49.3°F 99% 29.49 in 2.5 miles SW 16.1 mph - 0.14 in Rain Heavy Rain
6:00 PM 50.0°F 48.2°F 94% 29.47 in 3.0 miles SW 13.8 mph 19.6 mph N/A Rain Rain
6:05 PM 50.0°F 48.2°F 94% 29.46 in 5.0 miles SW 10.4 mph - N/A Rain Rain
6:10 PM 48.2°F 48.2°F 100% 29.46 in 5.0 miles SW 9.2 mph - N/A Rain Light Rain
6:15 PM 48.2°F 48.2°F 100% 29.46 in 7.0 miles SW 8.1 mph - N/A Rain Light Rain
6:20 PM 48.2°F 48.2°F 100% 29.46 in 10.0 miles SW 8.1 mph 17.3 mph N/A Rain Light Rain
6:30 PM 48.2°F 48.2°F 100% 29.46 in 10.0 miles SSW 4.6 mph - N/A Rain Light Rain
6:40 PM 48.2°F 48.2°F 100% 29.46 in 10.0 miles SSW 4.6 mph - N/A Rain Light Rain
6:45 PM 48.2°F 48.2°F 100% 29.46 in 10.0 miles SSW 4.6 mph - N/A Rain Light Rain
6:58 PM 48.0°F 47.8°F 99% 29.48 in 10.0 miles SSE 2.3 mph - 0.09 in Rain Light Rain
7:08 PM 48.2°F 48.2°F 100% 29.46 in 9.0 miles East 1.2 mph - N/A Rain Light Rain
7:40 PM 48.2°F 48.2°F 100% 29.44 in 8.0 miles East 3.5 mph - N/A   Overcast
7:43 PM 48.2°F 48.2°F 100% 29.44 in 8.0 miles East 4.6 mph - N/A Rain Light Rain
7:58 PM 47.7°F 47.5°F 99% 29.47 in 5.0 miles Calm Calm - 0.10 in Rain Light Rain
8:03 PM 48.2°F 48.2°F 100% 29.45 in 4.0 miles SW 2.3 mph - N/A Rain Rain
8:08 PM 48.2°F 46.4°F 93% 29.45 in 4.0 miles ESE 3.5 mph - N/A Rain Rain
8:13 PM 48.2°F 46.4°F 93% 29.44 in 6.0 miles East 4.6 mph - N/A Rain Light Rain
8:48 PM 48.2°F 48.2°F 100% 29.44 in 5.0 miles East 5.8 mph - N/A Rain Light Rain
8:49 PM 48.2°F 48.2°F 100% 29.44 in 4.0 miles East 5.8 mph - N/A Rain Light Rain
8:58 PM 48.4°F 48.2°F 99% 29.44 in 4.0 miles ESE 5.8 mph - 0.13 in Rain Light Rain
9:13 PM 48.2°F 48.2°F 100% 29.42 in 6.0 miles East 4.6 mph - N/A Rain Light Rain
9:38 PM 48.2°F 48.2°F 100% 29.41 in 10.0 miles East 5.8 mph - N/A Rain Light Rain
9:48 PM 48.2°F 48.2°F 100% 29.41 in 8.0 miles ESE 8.1 mph - N/A Rain Light Rain
9:58 PM 48.9°F 48.7°F 99% 29.42 in 7.0 miles SE 8.1 mph - 0.10 in Rain Light Rain
10:18 PM 48.2°F 48.2°F 100% 29.41 in 4.0 miles SSE 8.1 mph - N/A Rain Rain
10:20 PM 48.2°F 48.2°F 100% 29.41 in 4.0 miles SSE 8.1 mph - N/A Rain Rain
10:40 PM 50.0°F 48.2°F 94% 29.42 in 6.0 miles SSE 11.5 mph - N/A Rain Rain
10:58 PM 49.6°F 49.3°F 99% 29.42 in 7.0 miles South 11.5 mph - 0.19 in Rain Light Rain
11:08 PM 50.0°F 48.2°F 94% 29.41 in 10.0 miles South 10.4 mph - N/A Rain Light Rain
11:39 PM 48.2°F 48.2°F 100% 29.42 in 10.0 miles SSE 6.9 mph - N/A   Mostly Cloudy
11:52 PM 50.0°F 48.2°F 94% 29.42 in 10.0 miles South 12.7 mph - N/A Rain Light Rain
11:58 PM 49.5°F 48.6°F 97% 29.43 in 10.0 miles SSE 9.2 mph - 0.01 in Rain Light Rain
Moon Phase
Nov. 30 Dec. 06 Dec. 13 Dec. 20 Dec. 28
Sunrise:07:34 AM (PST) Moon Rise:06:23 PM (PST)
Sunset:04:22 PM (PST) Moon Set:09:10 AM (PST)

Copyright © 2014 The Weather Underground, Inc.